Regional Weather Roundup
Issued by NWS

Home | Current Version | Previous Version | Text Only | Print | Product List | Glossary Off
Versions: 1 2 3 4 5 6 7 8 9 10 11 12 13 14 15 16 17 18 19 20 21 22 23 24 25 26 27 28 29 30 31 32 33 34 35 36 37 38 39 40 41 42 43 44 45 46 47 48 49 50

051
ASUS43 KBIS 272010
RWRND

NORTH DAKOTA REGIONAL WEATHER ROUNDUP
NATIONAL WEATHER SERVICE BISMARCK ND
300 PM CDT MON MAR 27 2017

NOTE: "FAIR" INDICATES FEW OR NO CLOUDS BELOW 12,000 FEET WITH NO
SIGNIFICANT WEATHER AND/OR OBSTRUCTIONS TO VISIBILITY.


NDZ001>003-009>011-017-272100-
NORTHWEST NORTH DAKOTA

CITY           SKY/WX    TMP DP  RH WIND       PRES   REMARKS
WILLISTON      FAIR      57  29  34 E10       29.90F
MINOT          FAIR      45  39  79 N9        29.93S
MINOT AFB      CLOUDY    39  37  92 N14       29.93F
$$

NDZ018>021-031>035-040>046-272100-
SOUTHWEST NORTH DAKOTA

CITY           SKY/WX    TMP DP  RH WIND       PRES   REMARKS
BISMARCK       FAIR      64  33  31 VRB5      29.91F
DICKINSON      FAIR      60  23  24 S12G18    29.85F
GARRISON         N/A     57  37  47 SE3       29.90F
HETTINGER ARPT SUNNY     59  29  31 S7G17     29.88F
$$

NDZ004>008-012>016-024-026-027-054-272100-
NORTHEAST NORTH DAKOTA

CITY           SKY/WX    TMP DP  RH WIND       PRES   REMARKS
GRAND FORKS    CLOUDY    42  39  89 CALM      30.01R
GRND FRKS AFB  CLOUDY    42  42  99 CALM      30.01R
DEVILS LAKE    FAIR      52  40  63 SE9       29.94F
$$

NDZ022-023-025-028>030-036>039-047>053-272100-
SOUTHEAST NORTH DAKOTA

CITY           SKY/WX    TMP DP  RH WIND       PRES   REMARKS
FARGO          SUNNY     56  40  55 VRB3      29.96F
JAMESTOWN      FAIR      57  37  47 VRB3      29.92F
$$





USA.gov is the U.S. government's official web portal to all federal, state and local government web resources and services.